Year,Month,Day,Hour,Minute,Value (Times are PST for temperature in C)
2017,05,06,00,00,7.70
2017,05,06,00,01,7.70
2017,05,06,00,02,7.60
2017,05,06,00,03,7.60
2017,05,06,00,04,7.60
2017,05,06,00,05,7.60
2017,05,06,00,06,7.50
2017,05,06,00,07,7.50
2017,05,06,00,08,7.50
2017,05,06,00,09,7.50
2017,05,06,00,10,7.50
2017,05,06,00,11,7.50
2017,05,06,00,12,7.40
2017,05,06,00,13,7.40
2017,05,06,00,14,7.40
2017,05,06,00,15,7.30
2017,05,06,00,16,7.30
2017,05,06,00,17,7.30
2017,05,06,00,18,7.30
2017,05,06,00,19,7.20
2017,05,06,00,20,7.20
2017,05,06,00,21,7.20
2017,05,06,00,22,7.20
2017,05,06,00,23,7.10
2017,05,06,00,24,7.10
2017,05,06,00,25,7.10
2017,05,06,00,26,7.10
2017,05,06,00,27,7.00
2017,05,06,00,28,7.00
2017,05,06,00,29,6.90
2017,05,06,00,30,6.90
2017,05,06,00,31,6.90
2017,05,06,00,32,6.90
2017,05,06,00,33,6.90
2017,05,06,00,34,6.90
2017,05,06,00,35,6.90
2017,05,06,00,36,6.90
2017,05,06,00,37,6.90
2017,05,06,00,38,6.90
2017,05,06,00,39,6.80
2017,05,06,00,40,6.80
2017,05,06,00,41,6.80
2017,05,06,00,42,6.80
2017,05,06,00,43,6.80
2017,05,06,00,44,6.80
2017,05,06,00,45,6.80
2017,05,06,00,46,6.80
2017,05,06,00,47,6.80
2017,05,06,00,48,6.80
2017,05,06,00,49,6.70
2017,05,06,00,50,6.70
2017,05,06,00,51,6.70
2017,05,06,00,52,6.70
2017,05,06,00,53,6.60
2017,05,06,00,54,6.60
2017,05,06,00,55,6.60
2017,05,06,00,56,6.50
2017,05,06,00,57,6.50
2017,05,06,00,58,6.50
2017,05,06,00,59,6.40
2017,05,06,01,00,6.40
2017,05,06,01,01,6.40
2017,05,06,01,02,6.30
2017,05,06,01,03,6.30
2017,05,06,01,04,6.30
2017,05,06,01,05,6.30
2017,05,06,01,06,6.30
2017,05,06,01,07,6.20
2017,05,06,01,08,6.20
2017,05,06,01,09,6.20
2017,05,06,01,10,6.20
2017,05,06,01,11,6.20
2017,05,06,01,12,6.10
2017,05,06,01,13,6.10
2017,05,06,01,14,6.10
2017,05,06,01,15,6.10
2017,05,06,01,16,6.10
2017,05,06,01,17,6.00
2017,05,06,01,18,6.00
2017,05,06,01,19,6.00
2017,05,06,01,20,5.90
2017,05,06,01,21,5.90
2017,05,06,01,22,5.90
2017,05,06,01,23,5.90
2017,05,06,01,24,5.90
2017,05,06,01,25,5.80
2017,05,06,01,26,5.80
2017,05,06,01,27,5.80
2017,05,06,01,28,5.80
2017,05,06,01,29,5.80
2017,05,06,01,30,5.80
2017,05,06,01,31,5.70
2017,05,06,01,32,5.70
2017,05,06,01,33,5.70
2017,05,06,01,34,5.70
2017,05,06,01,35,5.70
2017,05,06,01,36,5.60
2017,05,06,01,37,5.60
2017,05,06,01,38,5.60
2017,05,06,01,39,5.60
2017,05,06,01,40,5.60
2017,05,06,01,41,5.50
2017,05,06,01,42,5.50
2017,05,06,01,43,5.50
2017,05,06,01,44,5.40
2017,05,06,01,45,5.40
2017,05,06,01,46,5.40
2017,05,06,01,47,5.40
2017,05,06,01,48,5.40
2017,05,06,01,49,5.40
2017,05,06,01,50,5.30
2017,05,06,01,51,5.30
2017,05,06,01,52,5.30
2017,05,06,01,53,5.30
2017,05,06,01,54,5.30
2017,05,06,01,55,5.30
2017,05,06,01,56,5.30
2017,05,06,01,57,5.30
2017,05,06,01,58,5.30
2017,05,06,01,59,5.20
2017,05,06,02,00,5.20
2017,05,06,02,01,5.20
2017,05,06,02,02,5.20
2017,05,06,02,03,5.20
2017,05,06,02,04,5.20
2017,05,06,02,05,5.20
2017,05,06,02,06,5.20
2017,05,06,02,07,5.10
2017,05,06,02,08,5.10
2017,05,06,02,09,5.10
2017,05,06,02,10,5.10
2017,05,06,02,11,5.10
2017,05,06,02,12,5.10
2017,05,06,02,13,5.00
2017,05,06,02,14,5.00
2017,05,06,02,15,5.00
2017,05,06,02,16,5.00
2017,05,06,02,17,4.90
2017,05,06,02,18,4.90
2017,05,06,02,19,4.90
2017,05,06,02,20,4.90
2017,05,06,02,21,4.90
2017,05,06,02,22,4.90
2017,05,06,02,23,4.90
2017,05,06,02,24,4.90
2017,05,06,02,25,4.90
2017,05,06,02,26,4.90
2017,05,06,02,27,4.90
2017,05,06,02,28,4.90
2017,05,06,02,29,4.90
2017,05,06,02,30,4.80
2017,05,06,02,31,4.80
2017,05,06,02,32,4.80
2017,05,06,02,33,4.80
2017,05,06,02,34,4.80
2017,05,06,02,35,4.80
2017,05,06,02,36,4.80
2017,05,06,02,37,4.80
2017,05,06,02,38,4.80
2017,05,06,02,39,4.80
2017,05,06,02,40,4.80
2017,05,06,02,41,4.80
2017,05,06,02,42,4.80
2017,05,06,02,43,4.80
2017,05,06,02,44,4.80
2017,05,06,02,45,4.80
2017,05,06,02,46,4.80
2017,05,06,02,47,4.80
2017,05,06,02,48,4.80
2017,05,06,02,49,4.80
2017,05,06,02,50,4.80
2017,05,06,02,51,4.80
2017,05,06,02,52,4.80
2017,05,06,02,53,4.80
2017,05,06,02,54,4.80
2017,05,06,02,55,4.80
2017,05,06,02,56,4.80
2017,05,06,02,57,4.80
2017,05,06,02,58,4.80
2017,05,06,02,59,4.80
2017,05,06,03,00,4.80
2017,05,06,03,01,4.90
2017,05,06,03,02,4.90
2017,05,06,03,03,4.90
2017,05,06,03,04,4.90
2017,05,06,03,05,4.90
2017,05,06,03,06,4.90
2017,05,06,03,07,4.90
2017,05,06,03,08,4.90
2017,05,06,03,09,4.90
2017,05,06,03,10,4.90
2017,05,06,03,11,4.90
2017,05,06,03,12,4.90
2017,05,06,03,13,4.90
2017,05,06,03,14,4.90
2017,05,06,03,15,5.00
2017,05,06,03,16,5.00
2017,05,06,03,17,5.00
2017,05,06,03,18,5.00
2017,05,06,03,19,5.10
2017,05,06,03,20,5.10
2017,05,06,03,21,5.10
2017,05,06,03,22,5.10
2017,05,06,03,23,5.10
2017,05,06,03,24,5.10
2017,05,06,03,25,5.10
2017,05,06,03,26,5.10
2017,05,06,03,27,5.10
2017,05,06,03,28,5.10
2017,05,06,03,29,5.10
2017,05,06,03,30,5.10
2017,05,06,03,31,5.10
2017,05,06,03,32,5.20
2017,05,06,03,33,5.20
2017,05,06,03,34,5.20
2017,05,06,03,35,5.20
2017,05,06,03,36,5.20
2017,05,06,03,37,5.20
2017,05,06,03,38,5.20
2017,05,06,03,39,5.20
2017,05,06,03,40,5.20
2017,05,06,03,41,5.20
2017,05,06,03,42,5.20
2017,05,06,03,43,5.20
2017,05,06,03,44,5.20
2017,05,06,03,45,5.20
2017,05,06,03,46,5.20
2017,05,06,03,47,5.20
2017,05,06,03,48,5.20
2017,05,06,03,49,5.20
2017,05,06,03,50,5.10
2017,05,06,03,51,5.10
2017,05,06,03,52,5.10
2017,05,06,03,53,5.10
2017,05,06,03,54,5.10
2017,05,06,03,55,5.10
2017,05,06,03,56,5.10
2017,05,06,03,57,5.10
2017,05,06,03,58,5.10
2017,05,06,03,59,5.10
2017,05,06,04,00,5.10
2017,05,06,04,01,5.10
2017,05,06,04,02,5.10
2017,05,06,04,03,5.10
2017,05,06,04,04,5.00
2017,05,06,04,05,5.00
2017,05,06,04,06,5.00
2017,05,06,04,07,5.00
2017,05,06,04,08,5.00
2017,05,06,04,09,5.00
2017,05,06,04,10,5.00
2017,05,06,04,11,5.00
2017,05,06,04,12,5.10
2017,05,06,04,13,5.10
2017,05,06,04,14,5.10
2017,05,06,04,15,5.10
2017,05,06,04,16,5.10
2017,05,06,04,17,5.10
2017,05,06,04,18,5.10
2017,05,06,04,19,5.10
2017,05,06,04,20,5.10
2017,05,06,04,21,5.20
2017,05,06,04,22,5.20
2017,05,06,04,23,5.20
2017,05,06,04,24,5.20
2017,05,06,04,25,5.20
2017,05,06,04,26,5.20
2017,05,06,04,27,5.20
2017,05,06,04,28,5.20
2017,05,06,04,29,5.20
2017,05,06,04,30,5.20
2017,05,06,04,31,5.20
2017,05,06,04,32,5.20
2017,05,06,04,33,5.20
2017,05,06,04,34,5.20
2017,05,06,04,35,5.20
2017,05,06,04,36,5.20
2017,05,06,04,37,5.20
2017,05,06,04,38,5.20
2017,05,06,04,39,5.20
2017,05,06,04,40,5.20
2017,05,06,04,41,5.20
2017,05,06,04,42,5.20
2017,05,06,04,43,5.20
2017,05,06,04,44,5.20
2017,05,06,04,45,5.20
2017,05,06,04,46,5.20
2017,05,06,04,47,5.20
2017,05,06,04,48,5.20
2017,05,06,04,49,5.20
2017,05,06,04,50,5.20
2017,05,06,04,51,5.20
2017,05,06,04,52,5.10
2017,05,06,04,53,5.10
2017,05,06,04,54,5.10
2017,05,06,04,55,5.10
2017,05,06,04,56,5.10
2017,05,06,04,57,5.10
2017,05,06,04,58,5.00
2017,05,06,04,59,5.00
2017,05,06,05,00,5.00
2017,05,06,05,01,5.00
2017,05,06,05,02,4.90
2017,05,06,05,03,4.90
2017,05,06,05,04,4.90
2017,05,06,05,05,4.90
2017,05,06,05,06,4.90
2017,05,06,05,07,4.90
2017,05,06,05,08,4.90
2017,05,06,05,09,4.90
2017,05,06,05,10,4.80
2017,05,06,05,11,4.80
2017,05,06,05,12,4.80
2017,05,06,05,13,4.80
2017,05,06,05,14,4.80
2017,05,06,05,15,4.80
2017,05,06,05,16,4.80
2017,05,06,05,17,4.80
2017,05,06,05,18,4.70
2017,05,06,05,19,4.70
2017,05,06,05,20,4.70
2017,05,06,05,21,4.70
2017,05,06,05,22,4.70
2017,05,06,05,23,4.70
2017,05,06,05,24,4.70
2017,05,06,05,25,4.70
2017,05,06,05,26,4.60
2017,05,06,05,27,4.60
2017,05,06,05,28,4.60
2017,05,06,05,29,4.60
2017,05,06,05,30,4.60
2017,05,06,05,31,4.60
2017,05,06,05,32,4.50
2017,05,06,05,33,4.50
2017,05,06,05,34,4.50
2017,05,06,05,35,4.50
2017,05,06,05,36,4.40
2017,05,06,05,37,4.40
2017,05,06,05,38,4.40
2017,05,06,05,39,4.40
2017,05,06,05,40,4.40
2017,05,06,05,41,4.40
2017,05,06,05,42,4.40
2017,05,06,05,43,4.30
2017,05,06,05,44,4.30
2017,05,06,05,45,4.30
2017,05,06,05,46,4.30
2017,05,06,05,47,4.30
2017,05,06,05,48,4.30
2017,05,06,05,49,4.30
2017,05,06,05,50,4.30
2017,05,06,05,51,4.30
2017,05,06,05,52,4.20
2017,05,06,05,53,4.20
2017,05,06,05,54,4.20
2017,05,06,05,55,4.20
2017,05,06,05,56,4.20
2017,05,06,05,57,4.20
2017,05,06,05,58,4.20
2017,05,06,05,59,4.20
2017,05,06,06,00,4.20
2017,05,06,06,01,4.20
2017,05,06,06,02,4.20
2017,05,06,06,03,4.20
2017,05,06,06,04,4.20
2017,05,06,06,05,4.20
2017,05,06,06,06,4.20
2017,05,06,06,07,4.20
2017,05,06,06,08,4.20
2017,05,06,06,09,4.20
2017,05,06,06,10,4.20
2017,05,06,06,11,4.20
2017,05,06,06,12,4.20
2017,05,06,06,13,4.10
2017,05,06,06,14,4.20
2017,05,06,06,15,4.10
2017,05,06,06,16,4.10
2017,05,06,06,17,4.10
2017,05,06,06,18,4.10
2017,05,06,06,19,4.10
2017,05,06,06,20,4.10
2017,05,06,06,21,4.10
2017,05,06,06,22,4.10
2017,05,06,06,23,4.10
2017,05,06,06,24,4.10
2017,05,06,06,25,4.10
2017,05,06,06,26,4.10
2017,05,06,06,27,4.10
2017,05,06,06,28,4.10
2017,05,06,06,29,4.10
2017,05,06,06,30,4.10
2017,05,06,06,31,4.10
2017,05,06,06,32,4.10
2017,05,06,06,33,4.10
2017,05,06,06,34,4.20
2017,05,06,06,35,4.20
2017,05,06,06,36,4.20
2017,05,06,06,37,4.20
2017,05,06,06,38,4.20
2017,05,06,06,39,4.20
2017,05,06,06,40,4.20
2017,05,06,06,41,4.30
2017,05,06,06,42,4.30
2017,05,06,06,43,4.30
2017,05,06,06,44,4.30
2017,05,06,06,45,4.40
2017,05,06,06,46,4.40
2017,05,06,06,47,4.40
2017,05,06,06,48,4.40
2017,05,06,06,49,4.40
2017,05,06,06,50,4.50
2017,05,06,06,51,4.50
2017,05,06,06,52,4.50
2017,05,06,06,53,4.60
2017,05,06,06,54,4.70
2017,05,06,06,55,4.70
2017,05,06,06,56,4.80
2017,05,06,06,57,4.80
2017,05,06,06,58,4.90
2017,05,06,06,59,5.00
2017,05,06,07,00,5.00
2017,05,06,07,01,5.10
2017,05,06,07,02,5.10
2017,05,06,07,03,5.20
2017,05,06,07,04,5.20
2017,05,06,07,05,5.30
2017,05,06,07,06,5.30
2017,05,06,07,07,5.30
2017,05,06,07,08,5.40
2017,05,06,07,09,5.40
2017,05,06,07,10,5.40
2017,05,06,07,11,5.50
2017,05,06,07,12,5.50
2017,05,06,07,13,5.60
2017,05,06,07,14,5.60
2017,05,06,07,15,5.60
2017,05,06,07,16,5.60
2017,05,06,07,17,5.70
2017,05,06,07,18,5.70
2017,05,06,07,19,5.70
2017,05,06,07,20,5.70
2017,05,06,07,21,5.70
2017,05,06,07,22,5.80
2017,05,06,07,23,5.80
2017,05,06,07,24,5.80
2017,05,06,07,25,5.80
2017,05,06,07,26,5.80
2017,05,06,07,27,5.90
2017,05,06,07,28,5.90
2017,05,06,07,29,5.90
2017,05,06,07,30,6.00
2017,05,06,07,31,6.00
2017,05,06,07,32,6.00
2017,05,06,07,33,6.10
2017,05,06,07,34,6.10
2017,05,06,07,35,6.10
2017,05,06,07,36,6.10
2017,05,06,07,37,6.10
2017,05,06,07,38,6.10
2017,05,06,07,39,6.10
2017,05,06,07,40,6.10
2017,05,06,07,41,6.20
2017,05,06,07,42,6.20
2017,05,06,07,43,6.20
2017,05,06,07,44,6.20
2017,05,06,07,45,6.20
2017,05,06,07,46,6.30
2017,05,06,07,47,6.40
2017,05,06,07,48,6.40
2017,05,06,07,49,6.40
2017,05,06,07,50,6.50
2017,05,06,07,51,6.50
2017,05,06,07,52,6.50
2017,05,06,07,53,6.50
2017,05,06,07,54,6.60
2017,05,06,07,55,6.60
2017,05,06,07,56,6.60
2017,05,06,07,57,6.60
2017,05,06,07,58,6.70
2017,05,06,07,59,6.70
2017,05,06,08,00,6.70
2017,05,06,08,01,6.70
2017,05,06,08,02,6.80
2017,05,06,08,03,6.90
2017,05,06,08,04,6.90
2017,05,06,08,05,6.90
2017,05,06,08,06,6.90
2017,05,06,08,07,7.00
2017,05,06,08,08,7.10
2017,05,06,08,09,7.20
2017,05,06,08,10,7.20
2017,05,06,08,11,7.20
2017,05,06,08,12,7.30
2017,05,06,08,13,7.30
2017,05,06,08,14,7.40
2017,05,06,08,15,7.40
2017,05,06,08,16,7.60
2017,05,06,08,17,7.70
2017,05,06,08,18,7.80
2017,05,06,08,19,7.90
2017,05,06,08,20,8.00
2017,05,06,08,21,8.00
2017,05,06,08,22,8.10
2017,05,06,08,23,8.20
2017,05,06,08,24,8.20
2017,05,06,08,25,8.30
2017,05,06,08,26,8.30
2017,05,06,08,27,8.40
2017,05,06,08,28,8.40
2017,05,06,08,29,8.40
2017,05,06,08,30,8.50
2017,05,06,08,31,8.50
2017,05,06,08,32,8.60
2017,05,06,08,33,8.70
2017,05,06,08,34,8.70
2017,05,06,08,35,8.70
2017,05,06,08,36,8.80
2017,05,06,08,37,8.80
2017,05,06,08,38,8.80
2017,05,06,08,39,8.80
2017,05,06,08,40,8.90
2017,05,06,08,41,9.00
2017,05,06,08,42,9.00
2017,05,06,08,43,9.10
2017,05,06,08,44,9.10
2017,05,06,08,45,9.10
2017,05,06,08,46,9.10
2017,05,06,08,47,9.10
2017,05,06,08,48,9.10
2017,05,06,08,49,9.10
2017,05,06,08,50,9.10
2017,05,06,08,51,9.10
2017,05,06,08,52,9.20
2017,05,06,08,53,9.20
2017,05,06,08,54,9.20
2017,05,06,08,55,9.30
2017,05,06,08,56,9.30
2017,05,06,08,57,9.40
2017,05,06,08,58,9.40
2017,05,06,08,59,9.50
2017,05,06,09,00,9.50
2017,05,06,09,01,9.60
2017,05,06,09,02,9.70
2017,05,06,09,03,9.70
2017,05,06,09,04,9.70
2017,05,06,09,05,9.70
2017,05,06,09,06,9.80
2017,05,06,09,07,9.80
2017,05,06,09,08,9.80
2017,05,06,09,09,9.80
2017,05,06,09,10,9.80
2017,05,06,09,11,9.80
2017,05,06,09,12,9.90
2017,05,06,09,13,9.90
2017,05,06,09,14,10.00
2017,05,06,09,15,10.10
2017,05,06,09,16,10.20
2017,05,06,09,17,10.20
2017,05,06,09,18,10.20
2017,05,06,09,19,10.20
2017,05,06,09,20,10.10
2017,05,06,09,21,10.10
2017,05,06,09,22,10.10
2017,05,06,09,23,10.10
2017,05,06,09,24,10.10
2017,05,06,09,25,10.20
2017,05,06,09,26,10.20
2017,05,06,09,27,10.20
2017,05,06,09,28,10.20
2017,05,06,09,29,10.20
2017,05,06,09,30,10.30
2017,05,06,09,31,10.30
2017,05,06,09,32,10.30
2017,05,06,09,33,10.30
2017,05,06,09,34,10.30
2017,05,06,09,35,10.20
2017,05,06,09,36,10.10
2017,05,06,09,37,10.10
2017,05,06,09,38,10.20
2017,05,06,09,39,10.20
2017,05,06,09,40,10.20
2017,05,06,09,41,10.20
2017,05,06,09,42,10.30
2017,05,06,09,43,10.30
2017,05,06,09,44,10.30
2017,05,06,09,45,10.30
2017,05,06,09,46,10.30
2017,05,06,09,47,10.40
2017,05,06,09,48,10.40
2017,05,06,09,49,10.30
2017,05,06,09,50,10.30
2017,05,06,09,51,10.30
2017,05,06,09,52,10.40
2017,05,06,09,53,10.40
2017,05,06,09,54,10.50
2017,05,06,09,55,10.50
2017,05,06,09,56,10.60
2017,05,06,09,57,10.60
2017,05,06,09,58,10.70
2017,05,06,09,59,10.70
2017,05,06,10,00,10.70
2017,05,06,10,01,10.70
2017,05,06,10,02,10.80
2017,05,06,10,03,10.80
2017,05,06,10,04,10.80
2017,05,06,10,05,10.90
2017,05,06,10,06,11.00
2017,05,06,10,07,11.10
2017,05,06,10,08,11.10
2017,05,06,10,09,11.00
2017,05,06,10,10,11.00
2017,05,06,10,11,11.00
2017,05,06,10,12,11.10
2017,05,06,10,13,11.10
2017,05,06,10,14,11.00
2017,05,06,10,15,11.00
2017,05,06,10,16,11.10
2017,05,06,10,17,11.10
2017,05,06,10,18,11.20
2017,05,06,10,19,11.20
2017,05,06,10,20,11.30
2017,05,06,10,21,11.30
2017,05,06,10,22,11.30
2017,05,06,10,23,11.30
2017,05,06,10,24,11.20
2017,05,06,10,25,11.10
2017,05,06,10,26,11.10
2017,05,06,10,27,11.00
2017,05,06,10,28,10.90
2017,05,06,10,29,10.90
2017,05,06,10,30,11.00
2017,05,06,10,31,11.00
2017,05,06,10,32,11.00
2017,05,06,10,33,11.00
2017,05,06,10,34,11.20
2017,05,06,10,35,11.20
2017,05,06,10,36,11.20
2017,05,06,10,37,11.20
2017,05,06,10,38,11.10
2017,05,06,10,39,11.20
2017,05,06,10,40,11.20
2017,05,06,10,41,11.20
2017,05,06,10,42,11.30
2017,05,06,10,43,11.30
2017,05,06,10,44,11.30
2017,05,06,10,45,11.30
2017,05,06,10,46,11.30
2017,05,06,10,47,11.30
2017,05,06,10,48,11.30
2017,05,06,10,49,11.30
2017,05,06,10,50,11.30
2017,05,06,10,51,11.30
2017,05,06,10,52,11.30
2017,05,06,10,53,11.30
2017,05,06,10,54,11.30
2017,05,06,10,55,11.30
2017,05,06,10,56,11.30
2017,05,06,10,57,11.30
2017,05,06,10,58,11.20
2017,05,06,10,59,11.20
2017,05,06,11,00,11.20
2017,05,06,11,01,11.30
2017,05,06,11,02,11.30
2017,05,06,11,03,11.20
2017,05,06,11,04,11.10
2017,05,06,11,05,11.10
2017,05,06,11,06,11.10
2017,05,06,11,07,11.00
2017,05,06,11,08,11.00
2017,05,06,11,09,11.10
2017,05,06,11,10,11.20
2017,05,06,11,11,11.30
2017,05,06,11,12,11.50
2017,05,06,11,13,11.60
2017,05,06,11,14,11.60
2017,05,06,11,15,11.60
2017,05,06,11,16,11.50
2017,05,06,11,17,11.60
2017,05,06,11,18,11.70
2017,05,06,11,19,11.80
2017,05,06,11,20,11.90
2017,05,06,11,21,11.90
2017,05,06,11,22,11.90
2017,05,06,11,23,11.90
2017,05,06,11,24,11.80
2017,05,06,11,25,11.70
2017,05,06,11,26,11.70
2017,05,06,11,27,11.70
2017,05,06,11,28,11.70
2017,05,06,11,29,11.70
2017,05,06,11,30,11.70
2017,05,06,11,31,11.80
2017,05,06,11,32,11.80
2017,05,06,11,33,11.80
2017,05,06,11,34,11.80
2017,05,06,11,35,11.80
2017,05,06,11,36,11.80
2017,05,06,11,37,11.80
2017,05,06,11,38,11.90
2017,05,06,11,39,11.90
2017,05,06,11,40,12.00
2017,05,06,11,41,12.00
2017,05,06,11,42,12.10
2017,05,06,11,43,12.10
2017,05,06,11,44,12.00
2017,05,06,11,45,12.00
2017,05,06,11,46,12.00
2017,05,06,11,47,12.20
2017,05,06,11,48,12.20
2017,05,06,11,49,12.30
2017,05,06,11,50,12.30
2017,05,06,11,51,12.20
2017,05,06,11,52,12.20
2017,05,06,11,53,12.20
2017,05,06,11,54,12.20
2017,05,06,11,55,12.20
2017,05,06,11,56,12.10
2017,05,06,11,57,12.00
2017,05,06,11,58,11.90
2017,05,06,11,59,11.90
2017,05,06,12,00,11.90
2017,05,06,12,01,11.80
2017,05,06,12,02,11.80
2017,05,06,12,03,11.80
2017,05,06,12,04,11.80
2017,05,06,12,05,11.90
2017,05,06,12,06,12.00
2017,05,06,12,07,12.10
2017,05,06,12,08,12.20
2017,05,06,12,09,12.20
2017,05,06,12,10,12.20
2017,05,06,12,11,12.20
2017,05,06,12,12,12.30
2017,05,06,12,13,12.20
2017,05,06,12,14,12.10
2017,05,06,12,15,12.00
2017,05,06,12,16,11.80
2017,05,06,12,17,11.60
2017,05,06,12,18,11.50
2017,05,06,12,19,11.40
2017,05,06,12,20,11.30
2017,05,06,12,21,11.30
2017,05,06,12,22,11.30
2017,05,06,12,23,11.30
2017,05,06,12,24,11.30
2017,05,06,12,25,11.40
2017,05,06,12,26,11.40
2017,05,06,12,27,11.40
2017,05,06,12,28,11.50
2017,05,06,12,29,11.50
2017,05,06,12,30,11.40
2017,05,06,12,31,11.40
2017,05,06,12,32,11.40
2017,05,06,12,33,11.50
2017,05,06,12,34,11.50
2017,05,06,12,35,11.60
2017,05,06,12,36,11.60
2017,05,06,12,37,11.70
2017,05,06,12,38,11.60
2017,05,06,12,39,11.60
2017,05,06,12,40,11.60
2017,05,06,12,41,11.50
2017,05,06,12,42,11.40
2017,05,06,12,43,11.50
2017,05,06,12,44,11.50
2017,05,06,12,45,11.50
2017,05,06,12,46,11.40
2017,05,06,12,47,11.30
2017,05,06,12,48,11.30
2017,05,06,12,49,11.20
2017,05,06,12,50,11.20
2017,05,06,12,51,11.20
2017,05,06,12,52,11.20
2017,05,06,12,53,11.30
2017,05,06,12,54,11.30
2017,05,06,12,55,11.30
2017,05,06,12,56,11.30
2017,05,06,12,57,11.30
2017,05,06,12,58,11.30
2017,05,06,12,59,11.30
2017,05,06,13,00,11.30
2017,05,06,13,01,11.30
2017,05,06,13,02,11.30
2017,05,06,13,03,11.30
2017,05,06,13,04,11.30
2017,05,06,13,05,11.40
2017,05,06,13,06,11.50
2017,05,06,13,07,11.60
2017,05,06,13,08,11.80
2017,05,06,13,09,12.00
2017,05,06,13,10,12.10
2017,05,06,13,11,12.20
2017,05,06,13,12,12.30
2017,05,06,13,13,12.50
2017,05,06,13,14,12.70
2017,05,06,13,15,12.80
2017,05,06,13,16,12.80
2017,05,06,13,17,12.70
2017,05,06,13,18,12.50
2017,05,06,13,19,12.40
2017,05,06,13,20,12.20
2017,05,06,13,21,12.10
2017,05,06,13,22,12.10
2017,05,06,13,23,12.10
2017,05,06,13,24,12.00
2017,05,06,13,25,12.00
2017,05,06,13,26,12.00
2017,05,06,13,27,12.00
2017,05,06,13,28,12.00
2017,05,06,13,29,11.90
2017,05,06,13,30,11.90
2017,05,06,13,31,11.80
2017,05,06,13,32,11.80
2017,05,06,13,33,11.80
2017,05,06,13,34,11.70
2017,05,06,13,35,11.70
2017,05,06,13,36,11.70
2017,05,06,13,37,11.70
2017,05,06,13,38,11.60
2017,05,06,13,39,11.60
2017,05,06,13,40,11.60
2017,05,06,13,41,11.60
2017,05,06,13,42,11.60
2017,05,06,13,43,11.60
2017,05,06,13,44,11.50
2017,05,06,13,45,11.50
2017,05,06,13,46,11.50
2017,05,06,13,47,11.60
2017,05,06,13,48,11.60
2017,05,06,13,49,11.70
2017,05,06,13,50,11.80
2017,05,06,13,51,12.00
2017,05,06,13,52,12.10
2017,05,06,13,53,12.20
2017,05,06,13,54,12.20
2017,05,06,13,55,12.30
2017,05,06,13,56,12.50
2017,05,06,13,57,12.70
2017,05,06,13,58,12.80
2017,05,06,13,59,12.90
2017,05,06,14,00,12.90
2017,05,06,14,01,13.00
2017,05,06,14,02,13.10
2017,05,06,14,03,13.20
2017,05,06,14,04,13.20
2017,05,06,14,05,13.30
2017,05,06,14,06,13.30
2017,05,06,14,07,13.30
2017,05,06,14,08,13.30
2017,05,06,14,09,13.20
2017,05,06,14,10,13.10
2017,05,06,14,11,13.00
2017,05,06,14,12,12.90
2017,05,06,14,13,12.70
2017,05,06,14,14,12.60
2017,05,06,14,15,12.40
2017,05,06,14,16,12.40
2017,05,06,14,17,12.40
2017,05,06,14,18,12.60
2017,05,06,14,19,12.80
2017,05,06,14,20,12.90
2017,05,06,14,21,12.90
2017,05,06,14,22,13.00
2017,05,06,14,23,13.00
2017,05,06,14,24,13.00
2017,05,06,14,25,13.00
2017,05,06,14,26,13.10
2017,05,06,14,27,13.10
2017,05,06,14,28,13.10
2017,05,06,14,29,13.00
2017,05,06,14,30,12.90
2017,05,06,14,31,12.90
2017,05,06,14,32,12.90
2017,05,06,14,33,12.90
2017,05,06,14,34,13.00
2017,05,06,14,35,13.00
2017,05,06,14,36,13.10
2017,05,06,14,37,13.10
2017,05,06,14,38,13.10
2017,05,06,14,39,13.10
2017,05,06,14,40,13.00
2017,05,06,14,41,12.90
2017,05,06,14,42,12.90
2017,05,06,14,43,12.80
2017,05,06,14,44,12.80
2017,05,06,14,45,12.80
2017,05,06,14,46,12.80
2017,05,06,14,47,12.90
2017,05,06,14,48,13.00
2017,05,06,14,49,13.20
2017,05,06,14,50,13.30
2017,05,06,14,51,13.40
2017,05,06,14,52,13.50
2017,05,06,14,53,13.60
2017,05,06,14,54,13.50
2017,05,06,14,55,13.50
2017,05,06,14,56,13.50
2017,05,06,14,57,13.50
2017,05,06,14,58,13.60
2017,05,06,14,59,13.60
2017,05,06,15,00,13.60
2017,05,06,15,01,13.60
2017,05,06,15,02,13.60
2017,05,06,15,03,13.60
2017,05,06,15,04,13.70
2017,05,06,15,05,13.70
2017,05,06,15,06,13.60
2017,05,06,15,07,13.60
2017,05,06,15,08,13.50
2017,05,06,15,09,13.40
2017,05,06,15,10,13.30
2017,05,06,15,11,13.30
2017,05,06,15,12,13.30
2017,05,06,15,13,13.20
2017,05,06,15,14,13.20
2017,05,06,15,15,13.10
2017,05,06,15,16,13.00
2017,05,06,15,17,12.90
2017,05,06,15,18,12.80
2017,05,06,15,19,12.70
2017,05,06,15,20,12.70
2017,05,06,15,21,12.80
2017,05,06,15,22,13.00
2017,05,06,15,23,13.10
2017,05,06,15,24,13.30
2017,05,06,15,25,13.40
2017,05,06,15,26,13.40
2017,05,06,15,27,13.40
2017,05,06,15,28,13.50
2017,05,06,15,29,13.60
2017,05,06,15,30,13.70
2017,05,06,15,31,13.80
2017,05,06,15,32,13.90
2017,05,06,15,33,14.00
2017,05,06,15,34,14.00
2017,05,06,15,35,14.10
2017,05,06,15,36,14.10
2017,05,06,15,37,14.20
2017,05,06,15,38,14.20
2017,05,06,15,39,14.20
2017,05,06,15,40,14.30
2017,05,06,15,41,14.30
2017,05,06,15,42,14.30
2017,05,06,15,43,14.30
2017,05,06,15,44,14.30
2017,05,06,15,45,14.20
2017,05,06,15,46,14.20
2017,05,06,15,47,14.20
2017,05,06,15,48,14.20
2017,05,06,15,49,14.10
2017,05,06,15,50,14.10
2017,05,06,15,51,14.10
2017,05,06,15,52,14.00
2017,05,06,15,53,14.00
2017,05,06,15,54,13.90
2017,05,06,15,55,14.00
2017,05,06,15,56,14.00
2017,05,06,15,57,14.00
2017,05,06,15,58,14.00
2017,05,06,15,59,14.00
2017,05,06,16,00,14.00
2017,05,06,16,01,14.00
2017,05,06,16,02,14.00
2017,05,06,16,03,14.10
2017,05,06,16,04,14.10
2017,05,06,16,05,14.10
2017,05,06,16,06,14.20
2017,05,06,16,07,14.30
2017,05,06,16,08,14.30
2017,05,06,16,09,14.20
2017,05,06,16,10,14.10
2017,05,06,16,11,14.10
2017,05,06,16,12,14.10
2017,05,06,16,13,14.00
2017,05,06,16,14,14.00
2017,05,06,16,15,14.00
2017,05,06,16,16,13.90
2017,05,06,16,17,13.90
2017,05,06,16,18,13.90
2017,05,06,16,19,13.90
2017,05,06,16,20,14.00
2017,05,06,16,21,14.10
2017,05,06,16,22,14.20
2017,05,06,16,23,14.20
2017,05,06,16,24,14.30
2017,05,06,16,25,14.30
2017,05,06,16,26,14.30
2017,05,06,16,27,14.30
2017,05,06,16,28,14.20
2017,05,06,16,29,14.30
2017,05,06,16,30,14.20
2017,05,06,16,31,14.10
2017,05,06,16,32,14.00
2017,05,06,16,33,14.00
2017,05,06,16,34,14.10
2017,05,06,16,35,14.10
2017,05,06,16,36,14.00
2017,05,06,16,37,14.00
2017,05,06,16,38,14.00
2017,05,06,16,39,14.10
2017,05,06,16,40,14.20
2017,05,06,16,41,14.20
2017,05,06,16,42,14.20
2017,05,06,16,43,14.30
2017,05,06,16,44,14.30
2017,05,06,16,45,14.30
2017,05,06,16,46,14.30
2017,05,06,16,47,14.30
2017,05,06,16,48,14.20
2017,05,06,16,49,14.10
2017,05,06,16,50,14.00
2017,05,06,16,51,14.00
2017,05,06,16,52,14.00
2017,05,06,16,53,14.10
2017,05,06,16,54,14.10
2017,05,06,16,55,14.10
2017,05,06,16,56,14.20
2017,05,06,16,57,14.20
2017,05,06,16,58,14.10
2017,05,06,16,59,14.10
2017,05,06,17,00,14.10
2017,05,06,17,01,14.10
2017,05,06,17,02,14.10
2017,05,06,17,03,14.10
2017,05,06,17,04,14.10
2017,05,06,17,05,14.10
2017,05,06,17,06,14.10
2017,05,06,17,07,14.10
2017,05,06,17,08,14.00
2017,05,06,17,09,14.00
2017,05,06,17,10,13.90
2017,05,06,17,11,13.90
2017,05,06,17,12,13.90
2017,05,06,17,13,14.00
2017,05,06,17,14,14.00
2017,05,06,17,15,14.10
2017,05,06,17,16,14.10
2017,05,06,17,17,14.20
2017,05,06,17,18,14.10
2017,05,06,17,19,14.00
2017,05,06,17,20,13.90
2017,05,06,17,21,13.90
2017,05,06,17,22,13.90
2017,05,06,17,23,14.00
2017,05,06,17,24,14.00
2017,05,06,17,25,14.00
2017,05,06,17,26,14.00
2017,05,06,17,27,14.00
2017,05,06,17,28,13.90
2017,05,06,17,29,13.80
2017,05,06,17,30,13.80
2017,05,06,17,31,13.80
2017,05,06,17,32,13.80
2017,05,06,17,33,13.80
2017,05,06,17,34,13.80
2017,05,06,17,35,13.80
2017,05,06,17,36,13.80
2017,05,06,17,37,13.80
2017,05,06,17,38,13.80
2017,05,06,17,39,13.80
2017,05,06,17,40,13.80
2017,05,06,17,41,13.70
2017,05,06,17,42,13.70
2017,05,06,17,43,13.60